GFSCGP_con_sbcape_318.txt.gz
CAPE
212 211 478 270 127 50 11 55 121 192 111 142 261 146 530 4 265 132 62 79 100 64 98 68 3 26 9 15 436 1315 1379 3306 1759 2058 1190 1153 840 809 535 483 1804 2349 2005 1445
151 77 222 279 154 75 84 16 342 171 186 109 228 228 456 590 902 238 103 126 124 95 170 435 257 353 173 210 577 1276 1906 2781 2623 1996 1821 2014 1989 1378 832 806 3765 3089 2894 3207
56 63 316 270 253 231 26 16 221 248 209 633 256 671 4 118 578 655 444 386 230 174 144 654 728 845 699 782 530 1240 1718 2718 2441 2450 2265 3292 2888 2712 2661 3268 3183 3078 3017 2966
552 528 392 136 118 109 69 0 24 129 119 531 300 242 19 15 149 528 559 547 408 306 284 519 874 1067 1021 871 1302 1559 1617 2525 2636 3000 2395 3341 3165 1620 1708 1666 2655 2982 2408 2024
845 375 439 260 203 87 148 5 86 182 404 333 6 103 446 10 150 215 736 639 515 536 423 427 636 1079 961 1299 1100 2062 2346 2084 2539 2398 2827 3089 2400 1394 653 561 988 983 1259 1168
597 461 371 381 243 105 132 169 365 309 131 185 25 0 156 270 244 60 550 669 475 615 787 758 628 916 826 1375 1522 1951 2873 2875 3065 3375 2427 1626 961 1201 117 188 339 1006 1175 121
418 553 414 419 421 307 324 305 225 338 130 351 113 6 8 53 18 160 364 314 698 878 850 855 1071 1144 1221 1329 1413 1811 2826 2451 1714 970 491 495 157 61 27 6 27 179 2 2
463 299 330 399 203 278 563 405 236 416 84 365 173 142 11 28 30 35 979 1077 1103 965 966 812 613 618 1212 2324 2796 2440 1803 953 340 91 83 23 12 6 10 15 8 2 4 2
258 151 0 237 268 396 81 1 14 14 39 139 197 93 47 2 20 774 1251 1452 1776 2234 2269 2240 1906 1595 1503 1390 1269 1085 342 67 19 0 3 3 0 0 0 0 1 4 4 5
58 1 0 169 64 0 0 0 0 0 49 125 207 231 86 118 39 0 339 1536 2016 1898 2053 2173 1415 1048 796 605 633 291 81 36 14 16 14 14 9 14 8 8 6 5 3 2
0 0 0 0 0 0 0 0 0 0 0 39 13 35 293 478 0 4 69 1324 1055 1027 1210 920 829 649 608 685 403 150 44 29 65 15 13 13 21 4 4 4 5 4 2 3
0 0 0 0 0 0 0 0 0 1 3 1 1 246 1193 725 796 994 949 820 518 465 597 573 361 125 224 365 315 83 9 95 125 124 11 18 13 4 5 3 3 3 7 7
0 0 0 0 0 0 13 0 0 0 0 0 0 118 1522 1834 1373 1011 881 426 228 287 228 223 75 18 22 19 68 41 36 63 23 35 33 16 11 3 1 0 8 5 4 2
0 0 0 0 0 0 0 0 0 0 2 2 1 668 1449 1438 1078 1111 740 351 307 268 125 68 30 16 77 229 307 209 57 41 26 4 5 15 7 1 3 4 3 4 2 0
0 0 0 0 0 0 0 0 0 4 0 0 0 0 769 1403 1038 1098 948 905 801 576 559 371 303 182 297 514 563 266 108 82 87 170 85 73 29 35 16 2 1 0 0 0
24 67 21 1 0 0 0 0 0 0 0 0 1 1 1362 1373 949 1081 1151 1146 1057 1131 1051 817 633 779 603 744 521 324 223 179 154 127 181 243 213 203 133 23 0 0 0 5
5 19 36 6 15 53 37 74 20 20 1 0 0 290 802 0 0 825 1319 1223 1303 1068 998 896 796 932 903 840 646 579 578 509 508 428 435 450 359 211 132 86 52 58 62 105
34 278 104 5 52 46 95 81 44 81 31 280 339 792 184 0 0 399 1633 1400 1278 1089 1043 1164 1173 1193 1031 786 733 759 708 879 835 702 554 468 380 386 476 306 106 438 297 386
38 20 23 63 37 68 87 36 41 31 117 610 301 16 0 218 0 1248 1440 1620 1359 1402 1210 1371 1194 1217 1246 933 780 697 569 450 441 376 629 606 637 755 588 476 214 62 86 419
40 9 5 28 54 145 374 16 9 0 4 360 183 13 345 949 986 892 769 1346 1517 1378 1422 1291 1166 765 685 554 491 499 534 655 637 723 842 823 582 606 658 642 825 502 651 553
75 297 174 58 27 92 62 33 0 1 379 433 392 794 944 1532 1417 220 162 1010 1676 1626 1596 1532 911 425 561 548 695 718 588 500 455 261 549 561 690 670 733 1078 1171 1104 711 1080
109 433 319 292 483 49 220 140 248 734 501 346 446 1246 1810 1331 1003 538 524 1372 1432 1510 1449 870 444 290 572 754 853 1066 935 1025 861 840 751 832 988 513 401 893 1266 1163 1295 969
100 212 558 416 731 39 403 699 412 477 606 644 1031 980 1173 731 689 1034 1777 1937 1718 1800 1640 533 239 582 748 852 1011 1354 1502 1196 1116 970 951 1024 1191 1101 126 1209 976 493 801 460
270 605 307 462 287 196 180 246 272 205 503 501 555 595 582 697 776 756 1149 1748 2013 1916 1307 400 340 756 1086 1029 1175 1382 1618 1322 1280 1300 1363 1293 1199 1058 1071 636 561 621 239 220
457 481 557 533 888 488 169 179 313 328 347 191 64 2 0 13 664 483 992 587 1448 2000 1211 711 862 1246 1393 1446 1321 1177 1473 1544 1217 1169 967 795 433 616 444 929 167 98 475 101
127 159 188 270 644 379 922 268 309 314 178 83 3 6 0 0 2 559 1306 1207 1286 1766 1644 1465 1452 1694 1524 1432 1336 1508 1640 1665 1366 1095 434 18 11 17 51 320 603 11 0 0

GFSCGP_con_sbcape_321.txt.gz
CAPE
138 3 37 57 140 76 0 7 82 73 125 97 172 80 283 399 315 261 2 35 7 2 3 0 0 0 0 0 0 0 0 0 379 124 60 110 86 203 0 0 792 1018 1090 957
81 0 27 33 216 63 56 89 67 73 231 133 128 106 168 242 245 61 178 173 103 10 18 1 0 0 0 30 8 0 75 208 710 176 255 89 81 620 565 308 1244 1471 1694 1651
96 132 16 78 35 39 78 17 0 40 28 367 85 231 150 97 201 807 429 192 240 87 31 0 0 0 0 0 104 318 302 925 786 408 453 806 1217 694 775 576 944 1009 1162 1297
120 232 40 145 96 72 96 86 0 33 67 190 70 64 231 13 165 515 187 139 320 195 178 27 8 2 0 5 58 163 565 1226 759 773 1163 1032 831 421 461 406 320 458 414 188
92 96 426 459 446 172 192 154 82 26 178 45 46 59 92 50 121 133 103 135 221 210 256 157 143 226 104 104 135 344 327 980 1228 739 948 1009 497 170 154 85 320 515 82 0
400 360 457 386 282 196 156 46 18 195 46 109 83 10 94 7 151 54 26 30 87 154 173 315 324 425 558 381 331 536 502 940 1580 1024 528 310 25 1 0 52 283 359 5 0
520 127 118 17 86 307 42 60 125 131 128 42 130 42 9 100 28 50 5 64 0 205 381 523 476 582 706 700 790 1010 1138 1561 546 315 25 1 2 4 0 7 201 24 2 3
331 250 38 33 0 0 0 15 203 156 8 177 176 155 56 128 101 0 0 0 309 1442 937 826 390 754 1689 1809 1077 2054 1036 214 10 0 1 0 0 0 1 0 1 2 1 2
197 99 29 0 1 22 3 43 66 0 0 0 253 263 347 96 6 0 0 0 1214 1794 1185 935 1076 1075 1149 787 425 286 5 0 0 1 1 2 0 1 3 2 2 2 3 1
168 36 0 0 18 70 100 0 0 0 0 0 76 155 206 29 0 0 0 78 1044 937 685 536 549 578 359 59 0 0 1 1 2 0 0 0 0 2 1 0 1 1 1 0
35 0 0 0 0 0 54 48 0 0 0 0 0 399 314 2 0 0 4 537 429 638 665 615 547 415 53 3 3 7 3 1 1 1 0 2 3 1 1 0 0 0 0 0
0 0 0 0 0 0 0 0 0 0 0 0 0 865 501 0 0 0 719 157 157 314 356 207 317 395 187 21 2 3 2 14 6 1 0 4 0 0 0 2 1 0 1 0
0 0 0 0 0 0 0 0 0 0 0 0 2 1142 239 88 880 915 282 158 171 146 151 100 78 87 67 34 7 2 4 0 0 0 0 0 2 0 1 1 2 0 0 0
0 0 0 0 0 0 0 0 0 0 0 0 1 1655 1496 1225 1038 503 266 238 172 164 106 72 74 50 62 52 11 12 0 0 0 3 4 1 2 0 0 0 0 0 0 0
0 0 0 0 0 0 0 0 0 0 0 0 0 1064 1523 988 895 481 305 259 368 347 259 123 102 199 296 382 273 12 13 18 1 0 3 4 0 0 0 0 0 0 0 0
0 0 0 0 0 0 0 0 0 1 0 0 0 1079 711 198 849 726 666 636 760 668 520 316 279 320 551 191 51 15 10 15 2 13 1 3 3 1 0 0 0 0 0 0
0 2 5 0 0 1 0 26 46 1 116 250 118 288 16 300 991 1004 922 933 1056 1035 754 683 703 736 664 328 139 74 47 16 10 24 38 18 0 0 0 0 0 0 0 0
0 26 51 3 1 0 0 0 0 9 727 866 501 86 23 6 0 25 535 990 1125 976 863 752 745 706 596 378 366 239 191 93 41 25 52 15 0 0 0 0 0 0 0 1
14 49 23 13 4 0 4 44 8 0 471 636 348 117 8 26 63 34 62 752 828 812 1050 1002 886 727 525 512 327 245 180 181 183 107 36 7 0 5 1 0 4 19 40 18
0 4 0 0 9 0 111 20 29 1 83 18 179 0 3 123 42 0 120 0 288 1080 976 982 662 610 219 151 61 0 0 0 7 29 65 47 29 9 7 3 15 18 16 18
0 57 79 17 14 89 171 94 7 1 606 0 0 565 0 3 206 228 0 27 600 839 672 656 215 126 48 39 0 1 4 71 1 116 38 74 7 0 0 0 64 57 15 9
113 119 152 45 62 99 143 177 685 585 492 137 175 791 840 526 245 45 132 735 935 884 836 256 94 80 8 30 70 45 0 19 0 0 10 11 13 57 16 18 75 30 7 4
68 191 464 265 404 165 33 38 8 187 624 1149 1255 1113 972 522 137 64 54 358 839 1140 425 60 0 26 9 128 28 186 17 121 27 64 34 72 170 142 95 86 22 61 64 28
92 103 190 58 113 154 253 1 13 172 650 437 145 72 678 844 959 718 820 743 913 749 100 0 1 20 45 30 169 340 480 101 115 124 139 152 191 161 240 130 65 136 53 0
213 215 64 70 76 197 12 12 173 324 257 51 1 0 36 406 634 440 558 1189 1144 542 102 0 1 67 99 51 114 290 483 185 132 190 227 203 254 197 52 104 118 40 0 0
147 54 55 214 40 0 5 3 277 354 158 57 0 0 0 0 162 303 129 343 1007 458 19 28 127 230 554 314 297 241 266 418 216 258 144 29 0 0 0 0 5 38 0 0

GFSCGP_con_sbcape_327.txt.gz
CAPE
37 5 104 114 0 71 216 96 8 85 111 100 123 135 39 41 1 0 0 0 0 0 0 0 0 0 1 1 0 0 0 0 0 0 0 0 23 2 0 0 0 42 307 219
0 3 6 145 79 92 116 137 14 168 101 160 90 178 100 112 98 23 28 58 0 0 0 0 0 0 4 3 1 0 0 0 0 0 0 0 0 54 397 417 218 301 274 55
26 1 16 200 173 235 116 57 0 68 92 85 186 31 114 279 179 281 236 233 63 17 0 0 0 0 0 0 0 0 0 0 0 0 0 8 93 118 263 417 518 631 826 619
4 30 118 45 86 55 47 117 110 35 55 34 67 5 41 68 57 100 394 424 136 79 49 0 0 0 1 0 0 0 0 0 0 0 0 68 170 204 120 384 366 290 291 620
176 37 109 178 151 227 182 142 91 50 13 100 154 47 37 36 24 18 41 258 108 65 132 106 0 0 0 0 0 0 0 3 0 0 0 20 107 147 171 226 162 7 0 2
160 135 155 202 314 425 314 209 92 4 29 49 69 109 33 32 35 19 132 263 523 611 738 579 375 5 5 36 11 0 9 11 41 60 154 221 289 277 233 108 189 10 1 1
317 500 506 286 180 210 44 50 39 12 45 48 13 6 2 2 54 25 105 144 208 182 91 84 24 87 27 55 76 111 111 178 129 209 280 233 242 252 160 81 171 1 4 4
302 313 49 37 113 171 1 2 22 52 54 9 66 32 0 7 12 113 3 101 96 59 9 0 198 478 36 50 100 149 459 536 254 53 2 1 0 1 3 3 3 3 2 1
200 370 15 17 47 0 26 59 8 54 0 2 20 22 167 0 36 107 84 0 1 344 343 237 101 47 56 62 92 118 311 18 1 1 1 2 1 0 0 1 2 4 5 1
37 14 0 2 6 2 23 6 21 5 7 0 0 46 70 81 8 17 693 38 421 406 354 140 81 30 2 31 123 83 6 1 2 3 4 4 4 6 6 5 4 2 1 0
0 0 0 0 0 0 0 0 0 0 0 0 0 0 171 292 23 1 760 897 836 395 314 156 70 22 9 3 2 2 3 2 3 4 5 3 7 7 5 4 4 0 0 0
0 0 0 0 0 0 0 0 0 0 0 0 0 0 13 6 112 432 672 700 596 432 332 178 88 85 69 38 3 3 6 4 6 6 8 8 5 4 2 1 0 0 0 0
0 0 0 0 0 0 0 0 0 0 0 0 0 0 31 559 647 571 475 411 466 383 278 229 120 24 11 29 16 6 3 4 4 5 5 2 2 0 1 1 0 0 0 0
0 0 0 0 0 0 0 0 0 0 0 0 0 0 215 530 496 396 417 349 552 533 354 221 187 112 65 40 16 1 1 2 3 0 0 0 0 0 0 0 0 0 0 0
0 0 0 0 0 0 0 0 0 0 0 0 0 0 236 205 542 399 371 556 620 629 583 426 318 235 116 112 61 13 1 0 0 0 0 0 0 0 0 0 0 0 0 0
0 0 0 0 0 0 0 0 0 0 0 0 7 30 586 622 516 487 478 632 627 673 697 562 411 302 212 124 60 30 2 0 0 0 0 1 0 0 0 0 0 0 0 0
0 0 0 0 0 0 0 0 0 0 258 444 322 291 817 819 775 641 641 700 670 558 509 486 467 495 482 293 69 60 21 7 1 0 0 0 0 0 0 0 0 0 0 0
0 0 0 0 0 0 0 0 0 426 536 453 565 995 851 685 467 552 574 680 816 670 540 383 359 359 393 53 17 26 56 5 0 0 0 0 0 0 0 0 0 0 0 0
0 0 0 0 0 0 0 1 43 53 343 694 866 388 501 330 140 528 264 741 908 838 570 337 331 402 68 30 2 0 0 0 0 0 0 0 0 0 0 0 0 0 0 0
0 0 0 0 0 0 0 0 0 10 111 546 257 215 174 7 233 0 0 636 984 1072 723 581 447 192 52 20 0 0 0 0 0 0 0 0 0 0 0 0 0 0 0 0
0 0 0 0 0 0 0 0 0 0 0 170 45 1 15 0 0 0 0 98 705 678 534 435 277 226 126 19 0 0 0 0 0 0 0 0 0 0 0 0 0 0 0 0
0 0 0 0 0 0 0 0 30 7 9 141 140 40 34 9 0 0 0 0 120 663 567 394 226 175 39 2 0 0 0 0 0 0 0 0 0 0 0 0 0 0 0 0
0 0 0 0 0 0 0 0 0 0 16 34 0 3 3 30 0 0 0 0 2 514 354 229 130 27 0 0 0 0 0 0 0 0 0 0 0 0 0 0 0 0 0 0
0 0 4 0 0 0 0 0 1 1 0 75 3 5 78 128 12 6 0 8 140 296 138 0 0 0 0 0 0 0 0 0 0 0 0 0 0 0 0 0 0 0 0 0
0 0 0 0 0 0 0 0 115 73 31 105 78 82 97 363 158 68 200 289 309 330 26 0 0 0 0 0 0 0 0 0 0 0 0 0 0 0 0 0 0 0 0 0
0 0 4 13 1 3 7 1 183 174 54 9 0 0 366 229 73 164 263 138 0 95 4 0 0 0 0 0 0 0 0 0 0 0 0 0 0 0 0 0 0 0 0 0

GFSCGP_con_sbcape_330.txt.gz
CAPE
0 7 55 0 0 56 129 93 49 25 47 56 43 1 19 7 1 0 0 0 0 0 0 0 0 0 0 0 0 0 0 0 0 0 0 0 0 0 0 0 98 364 156 457
0 1 27 81 56 59 77 72 26 75 82 60 3 73 38 11 9 0 0 0 0 0 0 0 0 0 0 0 0 0 0 0 0 0 0 0 0 0 44 88 12 0 116 431
0 0 53 73 129 113 19 55 3 0 60 141 48 9 52 86 74 28 5 2 0 0 0 0 0 0 0 0 0 0 0 0 8 5 0 0 26 117 324 413 488 544 645 373
0 28 173 88 155 50 13 77 119 23 59 14 61 10 6 42 122 167 235 287 98 30 0 0 0 0 0 0 2 0 0 0 0 0 0 13 115 232 197 386 211 148 326 584
191 56 79 54 174 78 34 92 37 44 1 49 46 45 13 2 27 28 109 344 232 52 1 0 0 0 0 0 3 1 0 0 0 0 0 17 59 59 77 165 68 19 2 4
78 71 140 204 184 197 148 68 4 0 0 8 0 52 123 0 8 0 9 56 294 94 76 26 18 0 0 20 0 0 0 0 0 0 0 13 82 135 198 206 87 2 2 4
308 299 326 211 251 150 92 0 4 0 52 45 0 54 77 0 7 0 79 205 332 372 507 378 113 35 11 40 4 8 0 0 0 8 30 73 67 60 57 57 114 1 4 4
328 188 267 32 196 223 112 50 19 40 19 10 27 78 38 60 0 68 78 191 174 56 95 322 252 278 38 36 14 39 7 59 8 33 9 5 6 1 4 6 16 1 2 2
206 253 3 13 13 2 3 42 0 7 0 0 0 2 5 104 20 181 135 27 155 444 220 138 60 27 95 33 124 93 82 36 2 2 2 2 1 0 1 0 0 1 4 1
190 420 0 0 0 0 4 0 0 0 0 0 0 0 2 152 210 123 391 246 352 462 229 77 83 74 50 89 116 113 74 13 1 2 2 2 2 0 0 1 2 1 0 0
0 0 8 0 0 0 0 0 0 0 0 0 0 0 0 230 309 197 333 850 661 618 563 364 181 100 51 126 178 109 5 1 0 0 1 1 2 13 1 2 2 1 0 0
0 0 0 0 0 0 0 0 0 0 0 0 0 0 29 9 0 84 518 869 601 596 515 386 270 211 128 68 42 36 41 38 10 3 3 2 2 1 3 3 2 0 0 0
0 0 0 0 0 0 0 0 0 0 0 0 0 0 0 380 323 200 874 885 635 710 662 436 276 264 271 84 9 1 2 3 2 3 2 2 3 2 1 1 0 0 0 0
0 0 0 0 0 0 0 0 0 0 0 0 0 0 0 91 439 620 720 766 855 805 689 550 340 270 232 153 44 5 3 2 5 3 1 1 1 1 1 1 1 0 0 0
0 0 0 0 0 0 0 0 0 0 0 0 0 0 0 0 362 530 665 728 970 590 472 626 484 324 243 174 21 2 3 5 1 1 1 0 1 1 0 0 0 0 0 0
0 0 0 0 0 0 0 0 0 0 0 0 0 0 7 204 319 595 646 716 908 828 997 812 664 463 319 264 54 1 1 2 0 0 1 0 0 0 0 0 0 0 0 0
0 0 0 0 0 0 0 0 0 0 0 19 34 0 457 554 410 458 384 474 659 620 647 551 682 553 347 300 144 41 3 0 0 0 1 4 1 0 0 0 0 0 0 0
0 0 0 0 0 0 0 0 0 0 55 173 164 177 535 554 440 476 388 424 505 499 522 538 630 529 476 116 43 53 23 14 1 0 0 0 0 0 0 0 0 0 0 0
0 0 0 0 0 0 0 0 0 0 0 209 329 556 370 227 190 470 464 582 597 509 377 291 264 343 134 23 2 19 2 0 0 0 0 0 0 0 0 0 0 0 0 0
0 0 0 0 0 0 0 0 0 0 0 5 299 162 122 25 617 33 0 108 724 670 451 239 252 232 44 0 0 0 0 0 0 0 0 0 0 0 0 0 0 0 0 0
0 0 0 0 0 0 0 0 0 0 0 5 63 13 1 233 322 0 0 12 550 804 566 367 302 238 77 0 0 0 0 0 0 0 0 0 0 0 0 0 0 0 0 0
0 0 0 0 0 0 0 0 0 0 0 5 30 12 30 27 12 1 5 0 457 516 307 281 346 239 15 0 0 0 0 0 0 0 0 0 0 0 0 0 0 0 0 0
0 0 0 0 0 0 0 0 0 0 0 79 122 58 21 37 57 20 0 0 38 411 342 245 307 101 8 0 0 0 0 0 0 0 0 0 0 0 0 0 0 0 0 0
0 0 0 0 0 0 0 0 0 4 0 22 115 3 0 0 10 0 0 0 0 91 221 48 24 39 0 0 0 0 0 0 0 0 0 0 0 0 0 0 0 0 0 0
0 0 0 0 0 0 0 0 0 115 131 148 228 86 142 117 125 3 0 0 0 0 8 0 13 0 0 0 0 0 0 0 0 0 0 0 0 0 0 0 0 0 0 0
0 0 0 0 0 2 0 0 31 192 238 84 92 0 1 199 199 64 10 0 0 23 0 0 0 0 0 0 0 0 0 0 0 0 0 0 0 0 0 0 0 0 0 0